Location: Peebles
(55.6412°N, 3.1714°W)
Time: 14:18:46
(UTC+01:00)

deb Agena D - Pass Details

Date: 24 September 2024
Orbit: 793 x 976 km, 99.8° (Epoch: 03 October)

Event Time Altitude Azimuth Distance (km) Brightness Sun altitude
Rises 03:51:47 0° 18° (NNE) 3,474 10.3 -25.5°
Reaches altitude 10° 03:54:08 10° 18° (NNE) 2,559 9.5 -25.2°
Maximum altitude 03:59:52 84° 290° (WNW) 928 6.3 -24.6°
Enters shadow 04:01:12 56° 210° (SSW) 1,091 6.4 -24.5°
